Weather History for Orange, MA

Change the Weather History Date:

Thursday, October 17, 2013

  Actual Average Record
Temperature  
Mean Temperature 60 °F -  
Max Temperature 73 °F 56 °F 73 °F (2013)
Min Temperature 48 °F 33 °F 27 °F (1997)
Degree Days  
Heating Degree Days 5    
Growing Degree Days 10 (Base 50)    
Moisture  
Dew Point 51 °F    
Average Humidity 82    
Maximum Humidity 97    
Minimum Humidity 38    
Precipitation  
Precipitation 0.05 in - - ()
Sea Level Pressure  
Sea Level Pressure 29.82 in    
Wind  
Wind Speed 1 mph (WSW)    
Max Wind Speed 9 mph    
Max Gust Speed -    
Visibility 9 miles    
Events Rain    
Averages and records for this station are not official NWS values.
T = Trace of Precipitation, MM = Missing Value Source: NWS Daily Summary

Daily Weather History Graph

Daily Weather History Graph

Search for Another Location

Airport:

Trip Planner

Search our weather history database for the weather conditions in past years. The results will help you decide how hot, cold, wet, or windy it might be!

Date:

Astronomy

Oct. 17, 2013 Rise Set
Actual Time 7:04 AM EDT 6:03 PM EDT
Civil Twilight 6:36 AM EDT 6:31 PM EDT
Nautical Twilight 6:03 AM EDT 7:04 PM EDT
Astronomical Twilight 5:30 AM EDT 7:37 PM EDT
Moon 5:16 PM EDT (10/17) 5:32 AM EDT (10/17)
Length of Visible Light 11h 55m
Length of Day
10h 58m
Waxing Gibbous, 98% of the Moon is Illuminated
Oct 17
Waxing Gibbous
Oct 18
Full
Oct 26
Last Quarter
Nov 3
New
Nov 10
First Quarter

Hourly Weather History & Observations

Time (EDT) Temp. Dew Point Humidity Pressure Visibility Wind Dir Wind Speed Gust Speed Precip Events Conditions
12:52 AM 51.1 °F 48.9 °F 92% 29.91 in 10.0 mi Calm Calm - N/A   Overcast
1:52 AM 51.1 °F 50.0 °F 96% 29.90 in 10.0 mi Calm Calm - N/A   Overcast
2:27 AM 51.8 °F 50.0 °F 94% 29.88 in 10.0 mi Calm Calm - N/A   Overcast
2:52 AM 51.1 °F 48.9 °F 92% 29.88 in 10.0 mi Calm Calm - N/A   Overcast
3:52 AM 50.0 °F 48.0 °F 93% 29.87 in 10.0 mi Calm Calm - N/A   Mostly Cloudy
4:52 AM 48.9 °F 48.0 °F 97% 29.86 in 10.0 mi Calm Calm - N/A   Mostly Cloudy
5:52 AM 50.0 °F 48.9 °F 96% 29.86 in 9.0 mi Calm Calm - N/A   Overcast
6:52 AM 51.1 °F 50.0 °F 96% 29.86 in 10.0 mi Calm Calm - N/A   Overcast
7:04 AM 51.8 °F 50.0 °F 94% 29.85 in 10.0 mi Calm Calm - N/A   Overcast
7:35 AM 51.8 °F 50.0 °F 94% 29.87 in 6.0 mi NW 3.5 mph - N/A   Overcast
7:52 AM 52.0 °F 51.1 °F 97% 29.88 in 7.0 mi Calm Calm - N/A   Overcast
8:15 AM 53.6 °F 51.8 °F 94% 29.88 in 6.0 mi Calm Calm - 0.01 in   Overcast
8:52 AM 55.0 °F 53.1 °F 93% 29.88 in 7.0 mi Calm Calm - 0.01 in   Overcast
9:40 AM 57.2 °F 53.6 °F 88% 29.87 in 8.0 mi Calm Calm - N/A   Overcast
9:52 AM 57.0 °F 55.0 °F 93% 29.88 in 9.0 mi Calm Calm - N/A   Overcast
10:52 AM 62.1 °F 53.1 °F 72% 29.86 in 10.0 mi South 5.8 mph - N/A   Partly Cloudy
11:52 AM 66.9 °F 48.9 °F 52% 29.85 in 10.0 mi WNW 9.2 mph - N/A   Clear
12:52 PM 70.0 °F 50.0 °F 49% 29.83 in 10.0 mi SW 8.1 mph - N/A   Clear
1:52 PM 70.0 °F 48.9 °F 47% 29.81 in 10.0 mi WSW 8.1 mph - N/A   Clear
2:52 PM 72.0 °F 45.0 °F 38% 29.79 in 10.0 mi West 8.1 mph - N/A   Clear
3:52 PM 72.0 °F 45.0 °F 38% 29.78 in 10.0 mi NW 6.9 mph - N/A   Clear
4:52 PM 72.0 °F 48.0 °F 43% 29.77 in 10.0 mi SW 6.9 mph - N/A   Scattered Clouds
5:52 PM 63.0 °F 54.0 °F 72% 29.77 in 10.0 mi SSW 3.5 mph - N/A   Clear
6:52 PM 57.9 °F 53.1 °F 84% 29.77 in 10.0 mi Calm Calm - N/A   Clear
7:52 PM 54.0 °F 51.1 °F 90% 29.77 in 10.0 mi NNE 3.5 mph - N/A   Clear
8:52 PM 55.0 °F 51.1 °F 86% 29.76 in 10.0 mi Calm Calm - N/A   Mostly Cloudy
9:52 PM 54.0 °F 51.1 °F 90% 29.75 in 10.0 mi Calm Calm - N/A   Mostly Cloudy
10:33 PM 55.4 °F 51.8 °F 88% 29.72 in 10.0 mi Calm Calm - N/A   Mostly Cloudy
10:52 PM 55.9 °F 52.0 °F 87% 29.72 in 10.0 mi Calm Calm - 0.00 in Rain Light Rain
11:15 PM 55.4 °F 53.6 °F 94% 29.71 in 10.0 mi Calm Calm - 0.00 in Rain Light Rain
11:52 PM 55.9 °F 54.0 °F 93% 29.70 in 4.0 mi SSE 4.6 mph - 0.04 in Rain Rain